This is the latest recevied weather packets stored in our database for station/object GW1601. If no packets are shown the sender has not sent any weather packets the latest 10 day(s).
| Time | Temp. | Humidity | Pressure | Rain* | Wind** | Luminosity | Snow |
|---|---|---|---|---|---|---|---|
| 1777540879 | 6.11° C | 99% | 987.1 hPa | 0 mm | - | - | - |
| 1777540534 | 6.11° C | 99% | 987.1 hPa | 0 mm | - | - | - |
| 1777538721 | 6.67° C | 99% | 987.1 hPa | 0 mm | - | - | - |
| 1777536207 | 6.67° C | 99% | 986.7 hPa | 0 mm | - | - | - |
| 1777534412 | 6.67° C | 99% | 987.1 hPa | 0 mm | - | - | - |
| 1777531177 | 7.22° C | 99% | 987.1 hPa | 0 mm | - | - | - |
| 1777529709 | 7.78° C | 99% | 987.1 hPa | 0 mm | - | - | - |
| 1777527575 | 7.78° C | 99% | 986.7 hPa | 0 mm | - | - | - |
| 1777525066 | 8.33° C | 99% | 987.1 hPa | 0 mm | - | - | - |
| 1777523968 | 8.89° C | 99% | 987.1 hPa | 0 mm | - | - | - |
| 1777522526 | 8.89° C | 99% | 987.1 hPa | 0 mm | - | - | - |
| 1777522182 | 8.89° C | 99% | 986.7 hPa | 0 mm | - | - | - |
| 1777521107 | 9.44° C | 99% | 987.1 hPa | 9.4 mm | - | - | - |
| 1777518929 | 10° C | 99% | 986.7 hPa | 9.4 mm | - | - | - |
| 1777517477 | 10.56° C | 99% | 986.7 hPa | 9.4 mm | - | - | - |
| 1777515689 | 11.11° C | 99% | 987.1 hPa | 9.4 mm | - | - | - |
| 1777515353 | 11.11° C | 99% | 986.7 hPa | 9.4 mm | - | - | - |
| 1777514958 | 11.11° C | 99% | 986.7 hPa | 9.4 mm | - | - | - |
| 1777509942 | 12.78° C | 99% | 985.4 hPa | 9.14 mm | - | - | - |
| 1777509205 | 12.78° C | 98% | 985.7 hPa | 9.14 mm | - | - | - |
| 1777508855 | 13.33° C | 98% | 985.1 hPa | 8.64 mm | - | - | - |
| 1777500222 | 15.56° C | 95% | 984 hPa | 7.62 mm | - | - | - |
| 1777498754 | 15° C | 99% | 983.7 hPa | 7.62 mm | - | - | - |
| 1777498048 | 14.44° C | 99% | 983.4 hPa | 7.62 mm | - | - | - |
| 1777497705 | 14.44° C | 99% | 983.4 hPa | 7.62 mm | - | - | - |
* Rain since midnight (hover to see other rain measurements)
** Current wind speed in m/s (hover to see current wind gust speed)